STARLINK-35887, 66959

Orbit data source: Space-Track

STARLINK-35887, 66959 is a payload satellite owned by SpaceX/Seattle (US) in LEO that was launched on Mon, 08 Dec 2025 UTC via an FALCON 9 launch vehicle from the Air Force Eastern Test Range (AFETR). Payload-class satellites include a variety of spacecraft equipped with specific instruments for various scientific and technological missions. These include communications satellites like Starlink; space stations such as the ISS; scientific satellites like the Hubble; Earth observation satellites from companies like Planet Labs, Umbra, and HawkEye 360; GPS; miniature CubeSats for education and research; and military/defense satellites.

Loading next visibility...
Identifier
66959, 2025-288A
Orbit
LEO
Country
Flag of USUS
Related business
Manufacturer
SpaceX/Seattle
Mission
Operational Commercial Communications
Bus & Motor
STARLINK V2MO, Unknown motor
Mass
575 kg wet, ~530 kg dry
Launch date (UTC)
2025-12-08 (5 months ago)
Launch vehicle
FALCON 9
Launch site
Air Force Eastern Test Range (AFETR)
Object type
Payload
Rocket body
Debris
Shape & HBR
Box + 2 Pan, 17.7 m
Radar Cross Section
36.964 m²

Expand to show TLE details & history
Last TLE update: 12 hours ago

TLE from 12 hours ago
0 STARLINK-35887
1 66959U 25288A   26129.98914014  .00017954  00000-0  66070-3 0  9994
2 66959  43.0039  37.1623 0001478 271.7033  88.3649 15.27563535 24669
Epoch: 2026-05-09T23:44Z
TLE epoch observation values (Epoch: 2026-05-09T23:44:21.708Z)
Latitude
-0.00003°
Longitude
173.27315°
Altitude
482.845 km
Speed
7.626 km/s
True Right ascension
02h 28m 38s
True Declination
0° 00' 00"
Sunlit
Object was in daylight at epoch
Visualization orbit readout
Latitude
Unknown
Longitude
Unknown
Altitude
Unknown
Speed
Unknown
Apparent Right ascension
Unknown
Apparent Declination
Unknown
Sunlit
N/A
Visualization observer readout
Local Sidereal Time
19:48:32
Azimuth
Unknown
Elevation
Unknown
Doppler factor
Unknown
Orbital elements
Apogee altitude
486.057 km
Perigee altitude
484.029 km
Semi-major axis
6,863.18 km
Eccentricity
0.00015
Inclination
43.0039°
RAAN
37.1623°
Arg. of periapsis
271.7033°
True anomaly
88.38183°
Mean anomaly
88.3649°
Eccentric anomaly
88.37336°
Mean motion
3.81729 °/min
Orbital period
94.31 mins
BSTAR
0.0006607
Loading maneuver chart data...
Computing Atmospheric mass density...
Loading historical data...
Loading historical data...
Loading historical data...
Loading historical data...
Loading historical data...
Loading historical data...
Loading historical data...

Documentation

Showing up to 5 results
|